STOCKHOLM / BROMMA current weather conditions

sailwx.info

Wind from 240 at 7 knots

Air temperature -1.0° C
Visibility: greater than 5.4 NM
Dewpoint -2.0° C

Last reported at 2015-Jan-27 23:20 UTC.
Time now 2015-Jan-28 01:30 UTC

Location: N 59°21' E 017°57'.
View on Google Maps.

See reports from other nearby stations

  
Tides and Currents Weather Stations Pressure Air Temp Water Temp Dewpoint Dewpoint Depression Visibility Wind Speed Wind Dir Waves Ship Positions
date/time (UTC)wind fromknots sea level pressurealtimeterstation pressurevisibilityair tempwater tempwave heightnotes
2015-Jan-28 00:20 220 7 5.4-1.0
2015-Jan-27 23:50 230 7 5.4-1.0
2015-Jan-27 23:20 240 7 5.4-1.0
2015-Jan-27 22:50 230 8 5.4-2.0
2015-Jan-27 22:20 240 8 5.4-2.0
2015-Jan-27 21:50 220 6 5.4-2.0
2015-Jan-27 21:20 210 5 5.4-2.0
2015-Jan-27 20:50 220 6 3.8-1.0 Mist.
2015-Jan-27 20:20 250 7 3.8-1.0 Mist.
2015-Jan-27 19:50 240 6 2.7-1.0 Mist.
2015-Jan-27 19:20 260 7 2.6-1.0 Mist.
2015-Jan-27 18:50 260 7 2.6-1.0 Mist.
2015-Jan-27 18:20 240 7 2.5-1.0 Mist.
2015-Jan-27 17:50 260 6 2.4-1.0 Mist.
2015-Jan-27 17:20 270 4 2.4-1.0 Mist.
2015-Jan-27 16:50 290 5 5.4-1.0
2015-Jan-27 16:20 290 7 5.4-1.0
2015-Jan-27 15:50 310 6 5.4-0.0
2015-Jan-27 15:20 300 6 5.4-0.0
2015-Jan-27 14:50 300 7 5.4-0.0
2015-Jan-27 14:20 310 5 5.4 1.0
2015-Jan-27 13:50 330 4 5.4-0.0
2015-Jan-27 13:20 320 6 5.4-0.0
2015-Jan-27 12:50 320 5 5.4-0.0
2015-Jan-27 12:20 330 7 5.4-0.0
2015-Jan-27 11:50 340 6 5.4 1.0
2015-Jan-27 11:20 360 7 5.4 1.0
2015-Jan-27 10:50 330 5 2.2 1.0 Mist.
2015-Jan-27 10:20 320 5 5.4 1.0
2015-Jan-27 09:50 330 5 5.4 1.0
2015-Jan-27 09:20 350 5 5.4 1.0
2015-Jan-27 08:50 340 4 2.7-0.0 Light snow.
2015-Jan-27 08:20 330 3 1.9-0.0 Light snow.
2015-Jan-27 07:50 350 4 2.6-0.0 Light snow.
2015-Jan-27 07:20 340 2 1.5-0.0 Light snow.
2015-Jan-27 06:50 1.1-0.0 Light snow.
2015-Jan-27 06:20 1.9-0.0 Light snow.
2015-Jan-27 05:50 1.9-0.0 Light snow.
2015-Jan-27 05:20 1.7-0.0 Light snow.
2015-Jan-27 04:50 1.7-0.0 Rain snow.
2015-Jan-27 04:20 1.9-0.0 Light rain snow.
2015-Jan-27 03:50 2.7 1.0 Light rain.
2015-Jan-27 03:20 3.8 1.0 Light rain.
2015-Jan-27 02:50 210 2 4.3 1.0 Light rain.
2015-Jan-27 02:20 200 1 4.9 1.0 Light rain.
2015-Jan-27 01:50 170 2 5.4 1.0 Light drizzle.
2015-Jan-27 01:20 190 3 5.4 1.0 Light rain.
2015-Jan-27 00:50 180 4 5.4 2.0 Light drizzle.
2015-Jan-27 00:20 180 4 4.9 2.0 Light drizzle.
2015-Jan-26 23:50 180 4 5.4 2.0 Light drizzle.
2015-Jan-26 23:20 180 5 5.4 2.0 Light drizzle.
2015-Jan-26 22:50 180 6 5.4 2.0 Light drizzle.
2015-Jan-26 22:20 180 6 5.4 2.0 Light drizzle.
2015-Jan-26 21:50 180 7 5.4 2.0 Light drizzle.
2015-Jan-26 21:20 180 7 5.4 2.0 Drizzle.
2015-Jan-26 20:50 180 7 5.4 2.0 Rain.
2015-Jan-26 20:20 180 8 5.4 2.0 Light rain.
2015-Jan-26 19:50 170 7 5.4 2.0 Light rain.
2015-Jan-26 19:20 170 6 5.4 2.0 Light rain.
2015-Jan-26 18:50 160 7 5.4 1.0 Light rain.
2015-Jan-26 18:20 170 7 5.4 1.0 Light rain.
2015-Jan-26 17:50 170 8 5.4 1.0 Light rain.
2015-Jan-26 17:20 170 9 5.4 1.0 Light rain.
2015-Jan-26 16:50 170 7 5.4 1.0 Light rain snow.
2015-Jan-26 16:20 160 8 5.4 1.0 Light snow.
2015-Jan-26 15:50 160 9 3.8 1.0 Snow.
2015-Jan-26 15:20 160 9 5.4 1.0 Light snow.
2015-Jan-26 14:50 160 8 5.4 1.0 Light snow.
2015-Jan-26 14:20 170 9 5.4 1.0 Light snow.
2015-Jan-26 13:50 170 8 5.4 1.0 Light snow.
2015-Jan-26 13:20 170 6 5.4 1.0
2015-Jan-26 12:50 170 8 5.4 1.0
2015-Jan-26 12:20 170 8 5.4 1.0
2015-Jan-26 11:50 190 7 5.4 1.0
2015-Jan-26 11:20 180 7 5.4-0.0
2015-Jan-26 10:50 190 6 5.4-0.0
2015-Jan-26 10:20 180 9 5.4-0.0
2015-Jan-26 09:50 180 9 5.4-0.0
2015-Jan-26 09:20 180 8 5.4-0.0
2015-Jan-26 08:50 180 9 5.4-1.0
2015-Jan-26 08:20 170 6 5.4-1.0
2015-Jan-26 07:50 170 7 5.4-2.0
2015-Jan-26 07:20 170 6 5.4-2.0
2015-Jan-26 06:50 170 6 5.4-2.0
2015-Jan-26 06:20 170 7 5.4-2.0
2015-Jan-26 05:50 190 7 5.4-2.0 Snow grains.
2015-Jan-26 05:20 180 6 5.4-2.0 Snow grains.
2015-Jan-26 04:50 170 6 5.4-2.0
2015-Jan-26 04:20 200 8 5.4-2.0
2015-Jan-26 03:50 210 7 5.4-2.0
2015-Jan-26 03:20 210 9 5.4-2.0
2015-Jan-26 02:50 200 7 5.4-2.0
2015-Jan-26 02:20 200 7 5.4-2.0
2015-Jan-26 01:50 230 8 5.4-2.0
2015-Jan-26 01:20 210 6 5.4-2.0